CW1631 Weather Reports


Display with metric or nautical units.
time (UTC)temp
F
wind
direction
speed
MPH
gust
MPH
rain 1hr
in
rain 24hr
in
rain mn
in
humidity
%
barometer
mb
20260502194618 48 249 1.0 2.0 0.00 0.03 0.03 44 1012.6
20260502194114 48 247 4.0 5.0 0.00 0.03 0.03 48 1012.5
20260502193611 47 268 1.0 1.0 0.00 0.03 0.03 46 1012.6
20260502193108 47 324 3.0 3.0 0.00 0.03 0.03 45 1012.9
20260502192603 47 334 4.0 6.0 0.00 0.03 0.03 46 1012.9
20260502192102 47 280 3.0 3.0 0.00 0.03 0.03 46 1012.9
20260502191558 47 317 4.0 5.0 0.00 0.03 0.03 46 1012.9
20260502191055 48 294 1.0 1.0 0.00 0.03 0.03 44 1013.1
20260502190553 48 318 3.0 3.0 0.00 0.03 0.03 44 1012.9
20260502190050 48 241 3.0 7.0 0.00 0.03 0.03 44 1013.2
20260502185544 48 221 2.0 3.0 0.00 0.03 0.03 44 1012.9
20260502185042 48 215 4.0 5.0 0.00 0.03 0.03 45 1013.0
20260502184538 48 299 5.0 7.0 0.00 0.03 0.03 46 1013.2
20260502184034 48 295 4.0 5.0 0.00 0.03 0.03 44 1013.2
20260502183530 49 333 5.0 6.0 0.00 0.03 0.03 42 1013.1
20260502183026 49 216 3.0 5.0 0.00 0.03 0.03 44 1012.8
20260502182521 48 228 0.0 1.0 0.00 0.03 0.03 43 1013.2
20260502182018 48 286 2.0 3.0 0.00 0.03 0.03 42 1013.1
20260502181516 48 300 4.0 5.0 0.00 0.03 0.03 43 1013.1
20260502181015 47 269 6.0 7.0 0.00 0.03 0.03 44 1013.1
20260502180511 47 287 9.0 10.0 0.00 0.03 0.03 43 1013.1
20260502170424 50 240 4.0 7.0 0.00 0.03 0.03 44 1012.9
20260502163907 49 227 4.0 5.0 0.00 0.03 0.03 44 1013.2
20260502163404 48 307 3.0 7.0 0.00 0.03 0.03 44 1013.3
20260502162902 49 348 7.0 9.0 0.00 0.03 0.03 45 1013.1
20260502162358 49 284 7.0 8.0 0.00 0.03 0.03 45 1013.4
20260502161855 50 289 9.0 11.0 0.00 0.03 0.03 42 1013.3
20260502161351 50 198 3.0 3.0 0.00 0.03 0.03 44 1013.2
20260502160849 49 283 7.0 8.0 0.00 0.03 0.03 43 1013.2
20260502160347 48 274 4.0 5.0 0.00 0.03 0.03 43 1013.2
20260502152322 48 334 3.0 3.0 0.00 0.03 0.03 45 1013.4
20260502151820 47 355 10.0 11.0 0.00 0.03 0.03 43 1013.2
20260502151317 48 277 10.0 13.0 0.00 0.03 0.03 41 1013.2
20260502150814 47 275 9.0 13.0 0.00 0.03 0.03 46 1013.4
20260502150310 47 290 3.0 5.0 0.00 0.03 0.03 50 1013.4
20260502130659 44 270 3.0 6.0 0.00 0.03 0.03 68 1013.8
20260502130157 44 320 6.0 7.0 0.00 0.03 0.03 68 1013.7
20260502123642 42 338 3.0 6.0 0.00 0.03 0.03 71 1013.7
20260502123139 42 337 5.0 7.0 0.00 0.03 0.03 70 1013.7
20260502122635 42 307 2.0 3.0 0.00 0.03 0.03 69 1013.5
20260502122132 42 288 7.0 9.0 0.00 0.03 0.03 65 1013.3
20260502121630 42 281 4.0 5.0 0.00 0.03 0.03 68 1013.4
20260502121127 43 274 9.0 11.0 0.00 0.03 0.03 68 1013.4
20260502120624 43 340 4.0 5.0 0.00 0.03 0.03 77 1013.6
20260502120121 42 299 3.0 5.0 0.00 0.03 0.03 78 1013.4
20260502115619 42 342 2.0 2.0 0.00 0.03 0.03 80 1013.7
20260502115114 42 356 4.0 5.0 0.00 0.03 0.03 81 1013.5
20260502114610 42 18 2.0 2.0 0.00 0.03 0.03 83 1013.7
20260502114108 42 299 5.0 9.0 0.00 0.03 0.03 86 1013.7
20260502113605 42 314 6.0 7.0 0.00 0.03 0.03 91 1013.8
20260502113104 42 56 3.0 5.0 0.00 0.03 0.03 94 1013.5
20260502112601 41 279 1.0 1.0 0.00 0.03 0.03 95 1013.4
20260502112058 41 270 3.0 3.0 0.00 0.03 0.03 96 1013.4
20260502111556 40 285 0.0 1.0 0.00 0.03 0.03 96 1013.6
20260502111053 40 287 0.0 0.0 0.00 0.03 0.03 95 1013.4
20260502110550 39 248 0.0 0.0 0.00 0.03 0.03 95 1013.5
20260502110048 40 255 0.0 0.0 0.00 0.03 0.03 95 1013.7
20260502105545 40 293 0.0 0.0 0.00 0.03 0.03 95 1013.3
20260502105043 39 309 1.0 1.0 0.00 0.03 0.03 95 1013.3
20260502104539 39 320 1.0 1.0 0.00 0.03 0.03 95 1013.2
20260502104037 39 297 0.0 0.0 0.00 0.03 0.03 95 1013.2
20260502103535 39 301 1.0 1.0 0.00 0.03 0.03 95 1013.1
20260502103033 39 266 0.0 0.0 0.00 0.03 0.03 95 1013.2
20260502102528 39 274 0.0 0.0 0.00 0.03 0.03 95 1013.1
20260502102026 39 274 0.0 0.0 0.00 0.03 0.03 94 1012.9
20260502101523 39 275 0.0 0.0 0.00 0.03 0.03 94 1013.0
20260502101022 39 297 0.0 0.0 0.00 0.03 0.03 94 1012.8
20260502100520 39 325 1.0 1.0 0.00 0.03 0.03 94 1012.9
20260502091454 40 283 0.0 0.0 0.00 0.03 0.03 91 1012.2
20260502090952 40 268 0.0 0.0 0.00 0.03 0.03 91 1012.4
20260502090448 41 218 2.0 2.0 0.00 0.03 0.03 91 1012.3
20260502071343 41 276 0.0 0.0 0.00 0.03 0.03 91 1012.1
20260502070841 41 256 0.0 0.0 0.00 0.03 0.03 91 1011.9
20260502070339 41 282 0.0 0.0 0.00 0.03 0.03 91 1011.8
20260502065837 41 279 0.0 0.0 0.00 0.03 0.03 91 1012.1
20260502065335 41 313 1.0 1.0 0.00 0.03 0.03 91 1011.9
20260502064833 41 300 3.0 3.0 0.00 0.03 0.03 91 1011.8
20260502064331 41 280 0.0 1.0 0.00 0.03 0.03 91 1012.0
20260502063827 41 284 2.0 2.0 0.00 0.03 0.03 91 1011.9
20260502063325 41 323 2.0 2.0 0.00 0.03 0.03 92 1011.9
20260502062822 41 314 2.0 2.0 0.00 0.03 0.03 92 1011.9
20260502062320 41 299 1.0 2.0 0.00 0.03 0.03 92 1012.1
20260502061819 41 356 3.0 3.0 0.00 0.03 0.03 92 1012.1
20260502061316 42 349 2.0 2.0 0.00 0.03 0.03 91 1011.9
20260502060811 42 319 1.0 1.0 0.00 0.03 0.03 91 1011.9
20260502060307 42 290 0.0 0.0 0.00 0.03 0.03 91 1012.1
20260502055805 42 55 0.0 0.0 0.00 0.03 0.03 91 1012.2
20260502055305 41 253 0.0 0.0 0.00 0.03 0.03 91 1011.8
20260502054802 42 303 0.0 0.0 0.00 0.03 0.03 91 1012.0
20260502054259 41 243 1.0 1.0 0.00 0.03 0.03 91 1012.2
20260502053756 41 40 1.0 1.0 0.00 0.03 0.03 91 1011.7
20260502053253 41 325 0.0 1.0 0.00 0.03 0.03 91 1012.0
20260502052751 41 294 1.0 2.0 0.00 0.03 0.03 91 1011.8
20260502052249 42 288 3.0 3.0 0.00 0.03 0.03 91 1011.8
20260502051746 42 309 1.0 1.0 0.00 0.03 0.03 91 1012.0
20260502051245 42 293 2.0 2.0 0.00 0.03 0.03 90 1011.8
20260502050741 42 280 3.0 3.0 0.00 0.03 0.03 90 1011.9
20260502050237 42 285 2.0 3.0 0.07 0.03 0.03 91 1012.0
20260502045734 42 273 0.0 0.0 0.12 0.03 0.03 91 1012.2
20260502045231 43 317 4.0 6.0 0.12 0.02 0.02 91 1012.1
20260502044728 43 282 3.0 5.0 0.07 0.01 0.01 91 1012.1
20260502044224 43 274 1.0 2.0 0.00 0.00 0.00 91 1012.0
20260502043722 43 262 1.0 1.0 0.00 0.00 0.00 91 1011.6
20260502043219 44 267 1.0 2.0 0.00 0.00 0.00 91 1011.6
20260502042718 44 254 2.0 3.0 0.00 0.00 0.00 91 1011.7
20260502042216 44 230 4.0 5.0 0.00 0.00 0.00 91 1011.8
20260502041714 44 247 3.0 3.0 0.00 0.00 0.00 91 1011.5
20260502041211 44 222 4.0 5.0 0.00 0.00 0.00 92 1011.7
20260502040708 44 235 3.0 5.0 0.00 0.00 0.00 92 1011.7
20260502040204 44 233 4.0 5.0 0.00 0.00 0.00 93 1011.7
20260502035701 44 217 3.0 5.0 0.00 0.15 0.15 94 1011.3
20260502035157 44 217 3.0 3.0 0.00 0.15 0.15 95 1011.2
20260502034655 44 274 1.0 1.0 0.00 0.15 0.15 95 1011.3
20260502034153 44 269 0.0 0.0 0.00 0.15 0.15 95 1011.5
20260502033651 44 236 6.0 7.0 0.00 0.15 0.15 95 1011.6
20260502033149 44 265 2.0 3.0 0.05 0.15 0.15 95 1011.6
20260502032645 45 242 2.0 5.0 0.05 0.15 0.15 95 1011.8
20260502032141 45 251 0.0 0.0 0.00 0.14 0.14 95 1011.7
20260502031639 45 247 2.0 2.0 0.00 0.14 0.14 95 1011.6
20260502031136 44 214 1.0 2.0 0.00 0.14 0.14 95 1011.7
20260502030635 44 239 1.0 1.0 0.00 0.14 0.14 95 1011.7
20260502030133 44 266 0.0 0.0 0.00 0.14 0.14 95 1011.6
20260502025629 44 237 0.0 1.0 0.00 0.14 0.14 95 1011.6
20260502025128 44 248 0.0 0.0 0.00 0.14 0.14 95 1011.5
20260502024625 44 262 1.0 1.0 0.00 0.14 0.14 94 1011.8
20260502024123 44 236 2.0 2.0 0.00 0.14 0.14 94 1011.5
20260502023621 44 233 1.0 2.0 0.07 0.14 0.14 94 1011.9
20260502023118 44 253 0.0 0.0 0.12 0.14 0.14 94 1011.9
20260502022615 44 239 1.0 1.0 0.05 0.13 0.13 94 1011.8
20260502022112 44 256 1.0 1.0 0.12 0.13 0.13 94 1011.7
20260502021609 44 250 1.0 1.0 0.07 0.12 0.12 94 1011.9
20260502021106 44 267 0.0 0.0 0.00 0.11 0.11 93 1011.7
20260502020604 44 274 1.0 1.0 0.00 0.11 0.11 93 1011.8
20260502020100 44 278 0.0 0.0 0.00 0.11 0.11 93 1011.6
20260502015558 44 254 0.0 0.0 0.05 0.11 0.11 93 1011.6
20260502015054 45 221 1.0 2.0 0.05 0.11 0.11 93 1011.6
20260502014551 45 250 0.0 0.0 0.00 0.10 0.10 93 1011.7
20260502014048 45 244 1.0 1.0 0.00 0.10 0.10 93 1011.9
20260502013543 45 256 0.0 1.0 0.00 0.10 0.10 92 1011.8
20260502013040 45 225 2.0 2.0 0.00 0.10 0.10 92 1011.7
20260502012538 45 260 1.0 1.0 0.00 0.10 0.10 92 1011.7
20260502012035 45 253 0.0 0.0 0.07 0.10 0.10 92 1011.7
20260502011532 45 225 1.0 1.0 0.07 0.10 0.10 92 1011.6
20260502011028 45 252 1.0 1.0 0.00 0.09 0.09 91 1011.8
20260502010526 45 234 2.0 2.0 0.00 0.09 0.09 91 1011.9
20260502010022 45 245 0.0 0.0 0.05 0.09 0.09 91 1011.7
20260502005520 45 234 1.0 1.0 0.05 0.09 0.09 90 1011.5
20260502005017 45 217 2.0 2.0 0.05 0.09 0.09 90 1011.9
20260502004513 45 201 1.0 1.0 0.07 0.08 0.08 89 1011.3
20260502004010 45 229 1.0 1.0 0.07 0.08 0.08 89 1011.5
20260502003508 45 214 1.0 2.0 0.07 0.08 0.08 89 1011.5
20260502003004 45 221 1.0 1.0 0.07 0.07 0.07 89 1011.6
20260502002501 45 212 2.0 2.0 0.07 0.07 0.07 88 1011.7
20260502001958 45 228 1.0 2.0 0.00 0.06 0.06 88 1011.5
20260502001455 45 213 2.0 2.0 0.05 0.06 0.06 88 1011.6
20260502000953 45 200 3.0 3.0 0.05 0.06 0.06 88 1011.5
20260502000454 45 194 1.0 1.0 0.12 0.06 0.06 87 1011.4
20260501235947 45 182 2.0 2.0 0.07 0.05 0.05 87 1011.3
20260501235443 46 193 3.0 3.0 0.05 0.04 0.04 86 1011.3
20260501234938 46 172 2.0 2.0 0.05 0.04 0.04 85 1011.1
20260501234435 46 218 1.0 2.0 0.12 0.04 0.04 83 1011.2
20260501233934 47 220 1.0 1.0 0.07 0.03 0.03 80 1011.0
20260501233431 47 271 0.0 0.0 0.05 0.02 0.02 79 1011.3
20260501232927 47 217 2.0 2.0 0.05 0.02 0.02 77 1011.2
20260501232424 48 237 2.0 2.0 0.00 0.01 0.01 78 1011.4
20260501231922 48 225 2.0 2.0 0.00 0.01 0.01 75 1011.0
20260501231420 49 232 1.0 1.0 0.00 0.01 0.01 72 1011.0
20260501230917 49 223 2.0 2.0 0.00 0.01 0.01 68 1011.1
20260501230416 49 224 3.0 3.0 0.00 0.01 0.01 67 1010.8
20260501225913 50 199 7.0 7.0 0.00 0.01 0.01 66 1010.8
20260501225411 50 200 6.0 7.0 0.00 0.01 0.01 63 1010.7
20260501224906 50 200 6.0 7.0 0.00 0.01 0.01 63 1010.8
20260501224404 50 209 4.0 5.0 0.00 0.01 0.01 65 1010.5
20260501223900 50 243 1.0 2.0 0.00 0.01 0.01 62 1010.5
20260501223356 51 214 4.0 5.0 0.00 0.01 0.01 60 1010.6
20260501222852 51 189 3.0 5.0 0.00 0.01 0.01 59 1010.7
20260501222350 51 245 6.0 7.0 0.00 0.01 0.01 59 1010.9
20260501221846 51 245 1.0 1.0 0.00 0.01 0.01 59 1010.8
20260501221344 51 212 3.0 3.0 0.00 0.01 0.01 58 1010.6
20260501220842 51 218 3.0 5.0 0.00 0.01 0.01 60 1010.8
20260501220339 51 245 2.0 2.0 0.00 0.01 0.01 58 1010.8
20260501215835 51 236 7.0 8.0 0.00 0.01 0.01 58 1010.9
20260501215331 51 225 4.0 5.0 0.00 0.01 0.01 58 1010.8
20260501214827 51 254 7.0 8.0 0.00 0.01 0.01 58 1010.8
20260501214322 51 229 6.0 8.0 0.00 0.01 0.01 58 1010.8
20260501213819 51 240 5.0 7.0 0.00 0.01 0.01 59 1010.8
20260501213315 52 228 5.0 7.0 0.00 0.01 0.01 58 1010.9
20260501212811 52 251 2.0 3.0 0.00 0.01 0.01 57 1010.6
20260501212308 52 233 4.0 6.0 0.00 0.01 0.01 57 1010.8
20260501211805 52 213 7.0 7.0 0.00 0.01 0.01 57 1010.6
20260501211302 52 303 3.0 3.0 0.00 0.01 0.01 55 1010.7
20260501210759 52 231 4.0 5.0 0.00 0.01 0.01 55 1010.7
20260501210255 52 262 1.0 2.0 0.00 0.01 0.01 55 1010.9
20260501205752 52 216 5.0 7.0 0.00 0.01 0.01 56 1010.9
20260501205249 52 247 5.0 6.0 0.00 0.01 0.01 56 1010.9
20260501204746 53 196 9.0 10.0 0.00 0.01 0.01 53 1010.6
20260501204243 53 265 5.0 6.0 0.00 0.01 0.01 53 1010.6
20260501203739 53 260 3.0 3.0 0.00 0.01 0.01 54 1010.6
20260501203236 53 217 2.0 2.0 0.00 0.01 0.01 53 1010.5
20260501202733 52 229 2.0 3.0 0.00 0.01 0.01 55 1010.7
20260501202230 53 203 5.0 6.0 0.00 0.01 0.01 53 1010.7
20260501201727 52 220 4.0 5.0 0.00 0.01 0.01 52 1010.8
20260501201224 52 235 6.0 7.0 0.00 0.01 0.01 54 1010.8
20260501200721 52 232 5.0 6.0 0.00 0.01 0.01 55 1010.7
20260501200218 53 214 6.0 7.0 0.00 0.01 0.01 53 1010.8
20260501195715 53 223 5.0 6.0 0.00 0.01 0.01 53 1010.7
20260501195211 53 217 3.0 3.0 0.00 0.01 0.01 53 1010.8